Regional Weather Roundup
Issued by NWS

Home | Current Version | Previous Version | Graphics & Text | Print | Product List | Glossary On
Versions: 1 2 3 4 5 6 7 8 9 10 11 12 13 14 15 16 17 18 19 20 21 22 23 24 25 26 27 28 29 30 31 32 33 34 35 36 37 38 39 40 41 42 43 44 45 46 47 48 49 50
000
ASUS43 KLSX 202207
RWRMO

WEATHER SUMMARY FOR MISSOURI
NATIONAL WEATHER SERVICE SPRINGFIELD MO
500 PM CDT SUN AUG 20 2017

NOTE: "FAIR" INDICATES FEW OR NO CLOUDS BELOW 12,000 FEET WITH NO
       SIGNIFICANT WEATHER AND/OR OBSTRUCTIONS TO VISIBILITY.
       CURRENT SKY AND/OR WEATHER CONDITIONS ARE NOT AVAILABLE FOR
       CHILLICOTHE AND FARMINGTON.

MOZ001>031-035>038-043-044-053-054-202300-
...NORTHERN AND WESTERN MISSOURI...

CITY           SKY/WX    TMP DP  RH WIND       PRES   REMARKS
KANSAS CTY INT PTSUNNY   85  71  63 SE16      29.99F HX  90
KANSAS C DTWN  CLOUDY    89  73  59 E10       29.97F HX  97
LEE`S SUMMIT   MOSUNNY   88  74  63 E7        30.02S HX  96
ST JOSEPH      MOSUNNY   86  69  56 SE12G21   29.98R HX  90
CHILLICOTHE      N/A     83  69  62 S8        29.97F
KIRKSVILLE     CLOUDY    79  68  69 W7        29.99F

$$
MOZ066>068-077>081-088>096-101>105-202300-
...SOUTHWEST MISSOURI...

CITY           SKY/WX    TMP DP  RH WIND       PRES   REMARKS
SPRINGFIELD    MOSUNNY   90  76  63 SE10      30.03R HX 101
JOPLIN         SUNNY     94  74  52 SW9       29.99R HX 104
BRANSON        PTSUNNY   90  73  58 SE9       30.05R HX  98

$$
MOZ032>034-039>042-045>050-055>058-069>072-202300-
...CENTRAL MISSOURI...

CITY           SKY/WX    TMP DP  RH WIND       PRES   REMARKS
COLUMBIA       MOSUNNY   87  72  60 W6        30.03R HX  93
JEFFERSON CITY PTSUNNY   89  75  63 SW8       30.00R HX  99
ROLLA          SUNNY     87  73  62 S10       30.06R HX  94
SEDALIA        CLOUDY    90  76  63 SW3       30.03F HX 101
WHITEMAN AFB   MOSUNNY   87  80  77 SE5       30.01S HX 102
WARRENSBURG    PTSUNNY   88  73  62 E5        30.01S HX  96
OSAGE BEACH    SUNNY     88  74  63 SE6       30.04R HX  96

$$
MOZ051-052-059>065-202300-
...EAST CENTRAL MISSOURI...

CITY           SKY/WX    TMP DP  RH WIND       PRES   REMARKS
ST LOUIS INTL  MOSUNNY   92  71  50 S15       30.01R HX  98
SPIRIT OF STL  SUNNY     91  74  57 S8        29.99S HX 100
ST CHARLES     SUNNY     92  70  48 S9        29.98S HX  97

$$
MOZ072>076-082>087-097>100-106>115-202300-
...SOUTH CENTRAL AND SOUTHEAST MISSOURI...

CITY           SKY/WX    TMP DP  RH WIND       PRES   REMARKS
CAPE GIRARDEAU CLOUDY    79  65  62 CALM      29.99F
FARMINGTON     MOSUNNY   83  74  74 VRB5      30.07R
POPLAR BLUFF   CLOUDY    83  72  69 CALM      30.02F
WEST PLAINS    MOSUNNY   86  71  60 S8        30.08S HX  91

$$



USA.gov is the U.S. government's official web portal to all federal, state and local government web resources and services.